When you browse on this site, cookies collect data to enhance your experience and personalize the content and advertising you see.
Visit our Privacy Policy to learn more. By continuing to use the site, you agree to this use of cookies and data.
  • In Latvia
  • List of Countries
  • For 7 days
  • Water Temperature
  • Satellite Maps
  • Weather Map
  • Weather Widgets
  • user-avatar
    Login

    Hourly Weather Nashavar

    Today, 19 November, Monday

    Time Temperature Precipitation Wind Pressure Humidity
    00:00 +20°C° 0 mm 1 mps 732 mmHg 26%
    01:00 +20°C° 0 mm 1 mps 732 mmHg 26%
    02:00 +20°C° 0 mm 1 mps 732 mmHg 27%
    03:00 +19°C° 0 mm 1 mps 732 mmHg 27%
    04:00 +19°C° 0 mm 1 mps 732 mmHg 28%
    05:00 +19°C° 0 mm 1 mps 732 mmHg 28%
    06:00 +18°C° 0 mm 2 mps 733 mmHg 29%
    07:00 +19°C° 0 mm 2 mps 733 mmHg 29%
    08:00 +19°C° 0 mm 2 mps 734 mmHg 30%
    09:00 +20°C° 0 mm 2 mps 734 mmHg 26%
    10:00 +23°C° 0 mm 2 mps 734 mmHg 23%
    11:00 +25°C° 0 mm 2 mps 734 mmHg 19%
    12:00 +25°C° 0 mm 2 mps 734 mmHg 19%
    13:00 +26°C° 0 mm 2 mps 734 mmHg 18%
    14:00 +26°C° 0 mm 2 mps 734 mmHg 17%
    15:00 +25°C° 0 mm 1 mps 734 mmHg 19%
    16:00 +24°C° 0 mm 1 mps 733 mmHg 21%
    17:00 +24°C° 0 mm 1 mps 733 mmHg 23%
    18:00 +23°C° 0 mm 1 mps 734 mmHg 24%
    19:00 +22°C° 0 mm 1 mps 734 mmHg 25%
    20:00 +21°C° 0 mm 1 mps 735 mmHg 25%
    21:00 +21°C° 0 mm 1 mps 735 mmHg 26%
    22:00 +20°C° 0 mm 1 mps 735 mmHg 27%
    23:00 +19°C° 0 mm 2 mps 735 mmHg 28%

    Tomorrow, 20 November, Tuesday

    Time Temperature Precipitation Wind Pressure Humidity
    00:00 +19°C° 0 mm 2 mps 735 mmHg 28%
    01:00 +18°C° 0 mm 2 mps 735 mmHg 29%
    02:00 +18°C° 0 mm 2 mps 735 mmHg 30%
    03:00 +18°C° 0 mm 2 mps 735 mmHg 30%
    04:00 +17°C° 0 mm 2 mps 735 mmHg 31%
    05:00 +17°C° 0 mm 2 mps 735 mmHg 31%
    06:00 +17°C° 0 mm 2 mps 735 mmHg 31%
    07:00 +18°C° 0 mm 2 mps 735 mmHg 31%
    08:00 +18°C° 0 mm 2 mps 735 mmHg 31%
    09:00 +20°C° 0 mm 2 mps 735 mmHg 28%
    10:00 +21°C° 0 mm 2 mps 736 mmHg 25%
    11:00 +24°C° 0 mm 2 mps 736 mmHg 21%
    12:00 +25°C° 0 mm 2 mps 735 mmHg 21%
    13:00 +25°C° 0 mm 2 mps 734 mmHg 20%
    14:00 +26°C° 0 mm 2 mps 734 mmHg 20%
    15:00 +25°C° 0 mm 2 mps 734 mmHg 22%
    16:00 +24°C° 0 mm 1 mps 733 mmHg 24%
    17:00 +23°C° 0 mm 1 mps 733 mmHg 27%
    18:00 +22°C° 0 mm 1 mps 733 mmHg 28%
    19:00 +22°C° 0 mm 1 mps 734 mmHg 29%
    20:00 +20°C° 0 mm 2 mps 734 mmHg 30%
    21:00 +20°C° 0 mm 2 mps 734 mmHg 30%
    22:00 +19°C° 0 mm 2 mps 734 mmHg 31%
    23:00 +19°C° 0 mm 2 mps 734 mmHg 31%

    Day after tomorrow, 21 November, Wednesday

    Time Temperature Precipitation Wind Pressure Humidity
    00:00 +18°C° 0 mm 2 mps 734 mmHg 31%
    01:00 +18°C° 0 mm 2 mps 734 mmHg 31%
    02:00 +18°C° 0 mm 2 mps 734 mmHg 31%
    03:00 +17°C° 0 mm 2 mps 734 mmHg 30%
    04:00 +17°C° 0 mm 2 mps 733 mmHg 30%
    05:00 +17°C° 0 mm 2 mps 733 mmHg 30%
    06:00 +17°C° 0 mm 2 mps 733 mmHg 29%
    07:00 +17°C° 0 mm 2 mps 734 mmHg 28%
    08:00 +18°C° 0 mm 2 mps 734 mmHg 27%
    09:00 +20°C° 0 mm 2 mps 734 mmHg 23%
    10:00 +21°C° 0 mm 2 mps 734 mmHg 20%
    11:00 +24°C° 0 mm 2 mps 734 mmHg 16%
    12:00 +25°C° 0 mm 2 mps 734 mmHg 16%
    13:00 +26°C° 0 mm 2 mps 733 mmHg 15%
    14:00 +26°C° 0 mm 2 mps 733 mmHg 14%
    15:00 +25°C° 0 mm 2 mps 732 mmHg 17%
    16:00 +24°C° 0 mm 1 mps 732 mmHg 19%
    17:00 +23°C° 0 mm 1 mps 732 mmHg 21%
    18:00 +23°C° 0 mm 1 mps 732 mmHg 21%
    19:00 +22°C° 0 mm 1 mps 733 mmHg 22%
    20:00 +21°C° 0 mm 1 mps 733 mmHg 22%
    21:00 +21°C° 0 mm 1 mps 733 mmHg 22%
    22:00 +21°C° 0 mm 1 mps 733 mmHg 22%
    23:00 +21°C° 0 mm 1 mps 734 mmHg 22%

    22 November, Thursday

    Time Temperature Precipitation Wind Pressure Humidity
    00:00 +20°C° 0 mm 1 mps 733 mmHg 22%
    01:00 +20°C° 0 mm 1 mps 733 mmHg 22%
    02:00 +20°C° 0 mm 1 mps 733 mmHg 22%
    03:00 +19°C° 0 mm 2 mps 733 mmHg 22%
    04:00 +19°C° 0 mm 2 mps 733 mmHg 22%
    05:00 +19°C° 0 mm 2 mps 733 mmHg 22%
    06:00 +19°C° 0.1 mm 2 mps 733 mmHg 24%
    07:00 +19°C° 0.1 mm 3 mps 734 mmHg 26%
    08:00 +19°C° 0.1 mm 3 mps 734 mmHg 28%
    09:00 +19°C° 0.2 mm 4 mps 735 mmHg 32%
    10:00 +19°C° 0.2 mm 4 mps 735 mmHg 36%
    11:00 +19°C° 0.2 mm 4 mps 736 mmHg 39%
    12:00 +19°C° 0.1 mm 5 mps 735 mmHg 40%
    13:00 +19°C° 0.1 mm 5 mps 735 mmHg 41%
    14:00 +19°C° 0.1 mm 5 mps 735 mmHg 42%
    15:00 +19°C° 0 mm 4 mps 735 mmHg 43%
    16:00 +18°C° 0 mm 4 mps 734 mmHg 45%
    17:00 +18°C° 0 mm 4 mps 734 mmHg 46%
    18:00 +17°C° 0 mm 3 mps 735 mmHg 47%
    19:00 +17°C° 0 mm 3 mps 736 mmHg 47%
    20:00 +16°C° 0 mm 3 mps 736 mmHg 48%
    21:00 +16°C° 0 mm 3 mps 737 mmHg 47%
    22:00 +16°C° 0 mm 3 mps 737 mmHg 47%
    23:00 +16°C° 0 mm 3 mps 737 mmHg 47%

    23 November, Friday

    Time Temperature Precipitation Wind Pressure Humidity
    00:00 +16°C° 0 mm 3 mps 737 mmHg 46%
    01:00 +14°C° 0 mm 3 mps 737 mmHg 46%
    02:00 +14°C° 0 mm 3 mps 736 mmHg 46%
    03:00 +14°C° 0 mm 3 mps 736 mmHg 46%
    04:00 +14°C° 0 mm 3 mps 736 mmHg 46%
    05:00 +14°C° 0 mm 3 mps 736 mmHg 46%
    06:00 +14°C° 0 mm 3 mps 736 mmHg 45%
    07:00 +14°C° 0 mm 3 mps 737 mmHg 44%
    08:00 +16°C° 0 mm 3 mps 737 mmHg 43%
    09:00 +18°C° 0 mm 3 mps 737 mmHg 38%
    10:00 +20°C° 0 mm 3 mps 737 mmHg 33%
    11:00 +22°C° 0 mm 3 mps 737 mmHg 27%
    12:00 +24°C° 0 mm 3 mps 736 mmHg 25%
    13:00 +25°C° 0 mm 3 mps 736 mmHg 23%
    14:00 +26°C° 0 mm 3 mps 735 mmHg 21%
    15:00 +25°C° 0 mm 2 mps 735 mmHg 24%
    16:00 +24°C° 0 mm 2 mps 735 mmHg 26%
    17:00 +23°C° 0 mm 2 mps 734 mmHg 28%
    18:00 +21°C° 0 mm 2 mps 735 mmHg 28%
    19:00 +20°C° 0 mm 2 mps 735 mmHg 29%
    20:00 +20°C° 0 mm 2 mps 735 mmHg 30%
    21:00 +19°C° 0 mm 2 mps 735 mmHg 29%
    22:00 +19°C° 0 mm 2 mps 735 mmHg 29%
    23:00 +18°C° 0 mm 2 mps 735 mmHg 29%

    24 November, Saturday

    Time Temperature Precipitation Wind Pressure Humidity
    00:00 +18°C° 0 mm 2 mps 735 mmHg 29%
    01:00 +18°C° 0 mm 2 mps 734 mmHg 28%
    02:00 +18°C° 0 mm 2 mps 734 mmHg 28%
    03:00 +17°C° 0 mm 2 mps 734 mmHg 28%
    04:00 +17°C° 0 mm 2 mps 733 mmHg 28%
    05:00 +17°C° 0 mm 2 mps 733 mmHg 28%
    06:00 +17°C° 0 mm 2 mps 733 mmHg 27%
    07:00 +18°C° 0 mm 2 mps 734 mmHg 27%
    08:00 +18°C° 0 mm 2 mps 734 mmHg 26%
    09:00 +20°C° 0 mm 2 mps 734 mmHg 23%
    10:00 +24°C° 0 mm 2 mps 734 mmHg 19%
    11:00 +26°C° 0 mm 2 mps 734 mmHg 15%
    12:00 +27°C° 0 mm 2 mps 733 mmHg 14%
    13:00 +28°C° 0 mm 2 mps 732 mmHg 14%
    14:00 +29°C° 0 mm 2 mps 731 mmHg 13%
    15:00 +27°C° 0 mm 2 mps 731 mmHg 15%
    16:00 +26°C° 0 mm 1 mps 731 mmHg 17%
    17:00 +24°C° 0 mm 1 mps 731 mmHg 19%
    18:00 +24°C° 0 mm 1 mps 731 mmHg 19%
    19:00 +23°C° 0 mm 1 mps 732 mmHg 20%
    20:00 +22°C° 0 mm 1 mps 732 mmHg 20%
    21:00 +22°C° 0 mm 1 mps 732 mmHg 20%
    22:00 +21°C° 0 mm 1 mps 732 mmHg 21%
    23:00 +21°C° 0 mm 1 mps 732 mmHg 21%
    Show more